Time,TemperatureF,DewpointF,PressureIn,WindDirection,WindDirectionDegrees,WindSpeedMPH,WindSpeedGustMPH,Humidity,HourlyPrecipIn,Conditions,Clouds,dailyrainin,SoftwareType,DateUTC
2013-05-07 00:00:00,60.6,41.9,30.06,North,0,0.0,0.0,50,0.00,,---,0.00,VWS V14.01,2013-05-07 05:00:00,
2013-05-07 00:06:00,60.4,42.2,30.06,North,0,0.0,0.0,51,0.00,,---,0.00,VWS V14.01,2013-05-07 05:06:00,
2013-05-07 00:12:00,60.3,42.1,30.06,North,0,0.0,0.0,51,0.00,,---,0.00,VWS V14.01,2013-05-07 05:12:00,
2013-05-07 00:17:00,60.1,41.9,30.06,North,0,0.0,0.0,51,0.00,,---,0.00,VWS V14.01,2013-05-07 05:17:00,
2013-05-07 00:23:00,60.1,41.9,30.06,North,0,0.0,0.0,51,0.00,,---,0.00,VWS V14.01,2013-05-07 05:23:00,
2013-05-07 00:29:00,59.7,41.6,30.06,North,0,0.0,0.0,51,0.00,,---,0.00,VWS V14.01,2013-05-07 05:29:00,
2013-05-07 00:34:00,59.5,41.9,30.06,North,0,0.0,0.0,52,0.00,,---,0.00,VWS V14.01,2013-05-07 05:34:00,
2013-05-07 00:40:00,59.4,41.8,30.06,North,0,0.0,0.0,52,0.00,,---,0.00,VWS V14.01,2013-05-07 05:40:00,
2013-05-07 00:45:00,59.4,41.8,30.09,North,0,0.0,0.0,52,0.00,,---,0.00,VWS V14.01,2013-05-07 05:45:00,
2013-05-07 00:51:00,59.2,41.6,30.09,North,0,0.0,0.0,52,0.00,,---,0.00,VWS V14.01,2013-05-07 05:51:00,
2013-05-07 00:56:00,59.2,41.6,30.06,North,0,0.0,0.0,52,0.00,,---,0.00,VWS V14.01,2013-05-07 05:56:00,
2013-05-07 01:02:00,59.2,41.6,30.06,North,0,0.0,0.0,52,0.00,,---,0.00,VWS V14.01,2013-05-07 06:02:00,
2013-05-07 01:08:00,59.2,41.6,30.06,North,0,0.0,0.0,52,0.00,,---,0.00,VWS V14.01,2013-05-07 06:08:00,
2013-05-07 01:13:00,59.2,41.6,30.06,North,0,0.0,0.0,52,0.00,,---,0.00,VWS V14.01,2013-05-07 06:13:00,
2013-05-07 01:19:00,59.2,41.6,30.06,North,0,0.0,0.0,52,0.00,,---,0.00,VWS V14.01,2013-05-07 06:19:00,
2013-05-07 01:24:00,58.5,41.9,30.06,North,0,0.0,0.0,54,0.00,,---,0.00,VWS V14.01,2013-05-07 06:24:00,
2013-05-07 01:30:00,58.3,41.7,30.06,North,0,0.0,0.0,54,0.00,,---,0.00,VWS V14.01,2013-05-07 06:30:00,
2013-05-07 01:35:00,58.3,41.7,30.06,North,0,0.0,0.0,54,0.00,,---,0.00,VWS V14.01,2013-05-07 06:35:00,
2013-05-07 01:40:00,58.1,41.6,30.06,North,0,0.0,0.0,54,0.00,,---,0.00,VWS V14.01,2013-05-07 06:40:00,
2013-05-07 01:45:00,58.1,41.6,30.06,North,0,0.0,0.0,54,0.00,,---,0.00,VWS V14.01,2013-05-07 06:45:00,
2013-05-07 01:51:00,57.9,41.9,30.06,North,0,0.0,0.0,55,0.00,,---,0.00,VWS V14.01,2013-05-07 06:51:00,
2013-05-07 01:57:00,57.9,41.9,30.06,North,0,0.0,0.0,55,0.00,,---,0.00,VWS V14.01,2013-05-07 06:57:00,
2013-05-07 02:02:00,57.9,41.9,30.06,North,0,0.0,0.0,55,0.00,,---,0.00,VWS V14.01,2013-05-07 07:02:00,
2013-05-07 02:08:00,57.6,41.5,30.06,North,0,0.0,0.0,55,0.00,,---,0.00,VWS V14.01,2013-05-07 07:08:00,
2013-05-07 02:14:00,57.6,42.0,30.06,NW,315,0.0,0.0,56,0.00,,---,0.00,VWS V14.01,2013-05-07 07:14:00,
2013-05-07 02:19:00,57.6,42.0,30.06,NW,315,0.0,0.0,56,0.00,,---,0.00,VWS V14.01,2013-05-07 07:19:00,
2013-05-07 02:24:00,57.6,42.5,30.06,NW,315,0.0,0.0,57,0.00,,---,0.00,VWS V14.01,2013-05-07 07:24:00,
2013-05-07 02:29:00,57.6,42.5,30.06,West,270,0.0,0.0,57,0.00,,---,0.00,VWS V14.01,2013-05-07 07:29:00,
2013-05-07 02:34:00,57.4,42.3,30.06,West,270,0.0,0.0,57,0.00,,---,0.00,VWS V14.01,2013-05-07 07:34:00,
2013-05-07 02:40:00,57.4,42.3,30.06,West,270,0.0,0.0,57,0.00,,---,0.00,VWS V14.01,2013-05-07 07:40:00,
2013-05-07 02:45:00,57.2,42.1,30.06,West,270,0.0,0.0,57,0.00,,---,0.00,VWS V14.01,2013-05-07 07:45:00,
2013-05-07 02:50:00,57.2,42.1,30.06,West,270,0.0,0.0,57,0.00,,---,0.00,VWS V14.01,2013-05-07 07:50:00,
2013-05-07 02:55:00,56.8,42.2,30.06,West,270,0.0,0.0,58,0.00,,---,0.00,VWS V14.01,2013-05-07 07:55:00,
2013-05-07 03:00:00,56.7,42.1,30.06,West,270,0.0,0.0,58,0.00,,---,0.00,VWS V14.01,2013-05-07 08:00:00,
2013-05-07 03:06:00,56.5,41.9,30.06,West,270,0.0,0.0,58,0.00,,---,0.00,VWS V14.01,2013-05-07 08:06:00,
2013-05-07 03:11:00,56.5,41.9,30.06,West,270,0.0,0.0,58,0.00,,---,0.00,VWS V14.01,2013-05-07 08:11:00,
2013-05-07 03:16:00,56.3,42.2,30.06,West,270,0.0,0.0,59,0.00,,---,0.00,VWS V14.01,2013-05-07 08:16:00,
2013-05-07 03:21:00,56.3,42.2,30.06,West,270,0.0,0.0,59,0.00,,---,0.00,VWS V14.01,2013-05-07 08:21:00,
2013-05-07 03:26:00,56.3,42.6,30.06,West,270,0.0,0.0,60,0.00,,---,0.00,VWS V14.01,2013-05-07 08:26:00,
2013-05-07 03:31:00,55.9,42.3,30.06,West,270,0.0,0.0,60,0.00,,---,0.00,VWS V14.01,2013-05-07 08:31:00,
2013-05-07 03:37:00,55.9,42.3,30.06,West,270,0.0,0.0,60,0.00,,---,0.00,VWS V14.01,2013-05-07 08:37:00,
2013-05-07 03:43:00,55.9,42.7,30.06,West,270,0.0,0.0,61,0.00,,---,0.00,VWS V14.01,2013-05-07 08:43:00,
2013-05-07 03:49:00,55.8,42.5,30.06,West,270,0.0,0.0,61,0.00,,---,0.00,VWS V14.01,2013-05-07 08:49:00,
2013-05-07 03:54:00,55.8,42.5,30.06,West,270,0.0,0.0,61,0.00,,---,0.00,VWS V14.01,2013-05-07 08:54:00,
2013-05-07 04:00:00,55.6,42.8,30.06,West,270,0.0,0.0,62,0.00,,---,0.00,VWS V14.01,2013-05-07 09:00:00,
2013-05-07 04:05:00,55.6,42.8,30.06,West,270,0.0,0.0,62,0.00,,---,0.00,VWS V14.01,2013-05-07 09:05:00,
2013-05-07 04:11:00,55.6,42.8,30.06,West,270,0.0,0.0,62,0.00,,---,0.00,VWS V14.01,2013-05-07 09:11:00,
2013-05-07 04:16:00,55.2,42.9,30.06,West,270,0.0,0.0,63,0.00,,---,0.00,VWS V14.01,2013-05-07 09:16:00,
2013-05-07 04:22:00,55.0,43.1,30.06,West,270,0.0,0.0,64,0.00,,---,0.00,VWS V14.01,2013-05-07 09:22:00,
2013-05-07 04:28:00,54.9,42.9,30.06,West,270,0.0,0.0,64,0.00,,---,0.00,VWS V14.01,2013-05-07 09:28:00,
2013-05-07 04:33:00,54.9,42.9,30.06,West,270,0.0,0.0,64,0.00,,---,0.00,VWS V14.01,2013-05-07 09:33:00,
2013-05-07 04:39:00,54.5,42.6,30.06,West,270,0.0,0.0,64,0.00,,---,0.00,VWS V14.01,2013-05-07 09:39:00,
2013-05-07 04:44:00,54.5,43.0,30.06,West,270,0.0,0.0,65,0.00,,---,0.00,VWS V14.01,2013-05-07 09:44:00,
2013-05-07 04:50:00,54.3,42.8,30.06,West,270,0.0,0.0,65,0.00,,---,0.00,VWS V14.01,2013-05-07 09:50:00,
2013-05-07 04:56:00,54.3,42.8,30.06,West,270,0.0,0.0,65,0.00,,---,0.00,VWS V14.01,2013-05-07 09:56:00,
2013-05-07 05:02:00,54.1,43.0,30.06,West,270,0.0,0.0,66,0.00,,---,0.00,VWS V14.01,2013-05-07 10:02:00,
2013-05-07 05:07:00,54.1,43.0,30.06,West,270,0.0,0.0,66,0.00,,---,0.00,VWS V14.01,2013-05-07 10:07:00,
2013-05-07 05:12:00,53.6,42.9,30.06,West,270,0.0,0.0,67,0.00,,---,0.00,VWS V14.01,2013-05-07 10:12:00,
2013-05-07 05:17:00,53.4,43.1,30.06,West,270,0.0,0.0,68,0.00,,---,0.00,VWS V14.01,2013-05-07 10:17:00,
2013-05-07 05:22:00,53.4,43.1,30.06,West,270,0.0,0.0,68,0.00,,---,0.00,VWS V14.01,2013-05-07 10:22:00,
2013-05-07 05:28:00,53.2,43.0,30.06,West,270,0.0,0.0,68,0.00,,---,0.00,VWS V14.01,2013-05-07 10:28:00,
2013-05-07 05:34:00,53.1,42.8,30.06,West,270,0.0,0.0,68,0.00,,---,0.00,VWS V14.01,2013-05-07 10:34:00,
2013-05-07 05:39:00,53.1,42.8,30.06,West,270,0.0,0.0,68,0.00,,---,0.00,VWS V14.01,2013-05-07 10:39:00,
2013-05-07 05:45:00,53.1,42.8,30.06,West,270,0.0,0.0,68,0.00,,---,0.00,VWS V14.01,2013-05-07 10:45:00,
2013-05-07 05:51:00,53.1,42.8,30.06,West,270,0.0,0.0,68,0.00,,---,0.00,VWS V14.01,2013-05-07 10:51:00,
2013-05-07 05:56:00,52.9,43.0,30.06,West,270,0.0,0.0,69,0.00,,---,0.00,VWS V14.01,2013-05-07 10:56:00,
2013-05-07 06:01:00,52.9,43.4,30.06,West,270,0.0,0.0,70,0.00,,---,0.00,VWS V14.01,2013-05-07 11:01:00,
2013-05-07 06:07:00,52.7,43.2,30.06,West,270,0.0,0.0,70,0.00,,---,0.00,VWS V14.01,2013-05-07 11:07:00,
2013-05-07 06:13:00,52.7,43.2,30.06,West,270,0.0,0.0,70,0.00,,---,0.00,VWS V14.01,2013-05-07 11:13:00,
2013-05-07 06:18:00,52.9,43.4,30.06,West,270,0.0,0.0,70,0.00,,---,0.00,VWS V14.01,2013-05-07 11:18:00,
2013-05-07 06:24:00,52.9,43.8,30.06,NE,45,0.0,0.0,71,0.00,,---,0.00,VWS V14.01,2013-05-07 11:24:00,
2013-05-07 06:30:00,53.1,43.9,30.06,NE,45,0.0,0.0,71,0.00,,---,0.00,VWS V14.01,2013-05-07 11:30:00,
2013-05-07 06:36:00,53.1,43.9,30.06,NE,45,0.0,0.0,71,0.00,,---,0.00,VWS V14.01,2013-05-07 11:36:00,
2013-05-07 06:41:00,53.1,44.3,30.06,NNE,22,0.0,0.0,72,0.00,,---,0.00,VWS V14.01,2013-05-07 11:41:00,
2013-05-07 06:46:00,53.2,44.5,30.06,NE,45,0.0,0.0,72,0.00,,---,0.00,VWS V14.01,2013-05-07 11:46:00,
2013-05-07 06:51:00,53.4,44.6,30.06,NE,45,0.0,0.0,72,0.00,,---,0.00,VWS V14.01,2013-05-07 11:51:00,
2013-05-07 06:56:00,53.6,44.8,30.06,NE,45,0.0,0.0,72,0.00,,---,0.00,VWS V14.01,2013-05-07 11:56:00,
2013-05-07 07:01:00,54.0,45.2,30.06,NE,45,0.0,0.0,72,0.00,,---,0.00,VWS V14.01,2013-05-07 12:01:00,
2013-05-07 07:06:00,54.1,45.7,30.06,ENE,68,0.0,0.0,73,0.00,,---,0.00,VWS V14.01,2013-05-07 12:06:00,
2013-05-07 07:11:00,54.3,45.5,30.06,ENE,68,0.0,0.0,72,0.00,,---,0.00,VWS V14.01,2013-05-07 12:11:00,
2013-05-07 07:16:00,54.5,45.7,30.06,ENE,68,0.0,0.0,72,0.00,,---,0.00,VWS V14.01,2013-05-07 12:16:00,
2013-05-07 07:21:00,54.7,45.8,30.06,ENE,68,0.0,0.0,72,0.00,,---,0.00,VWS V14.01,2013-05-07 12:21:00,
2013-05-07 07:26:00,55.0,46.2,30.09,ENE,68,0.0,0.0,72,0.00,,---,0.00,VWS V14.01,2013-05-07 12:26:00,
2013-05-07 07:31:00,55.4,46.5,30.09,ENE,68,0.0,0.0,72,0.00,,---,0.00,VWS V14.01,2013-05-07 12:31:00,
2013-05-07 07:36:00,55.6,46.7,30.09,ENE,68,0.0,0.0,72,0.00,,---,0.00,VWS V14.01,2013-05-07 12:36:00,
2013-05-07 07:41:00,55.9,47.1,30.06,ENE,68,0.0,0.0,72,0.00,,---,0.00,VWS V14.01,2013-05-07 12:41:00,
2013-05-07 07:46:00,56.1,47.2,30.06,SSE,158,0.0,0.0,72,0.00,,---,0.00,VWS V14.01,2013-05-07 12:46:00,
2013-05-07 07:51:00,56.5,47.2,30.06,South,180,0.0,0.0,71,0.00,,---,0.00,VWS V14.01,2013-05-07 12:51:00,
2013-05-07 07:56:00,57.0,47.7,30.06,South,180,0.0,0.9,71,0.00,,---,0.00,VWS V14.01,2013-05-07 12:56:00,
2013-05-07 08:01:00,57.6,47.9,30.06,SSE,158,0.0,0.0,70,0.00,,---,0.00,VWS V14.01,2013-05-07 13:01:00,
2013-05-07 08:06:00,57.9,48.2,30.06,WNW,292,1.3,1.3,70,0.00,,---,0.00,VWS V14.01,2013-05-07 13:06:00,
2013-05-07 08:11:00,58.3,48.2,30.09,SW,225,0.0,0.0,69,0.00,,---,0.00,VWS V14.01,2013-05-07 13:11:00,
2013-05-07 08:16:00,58.6,48.5,30.09,South,180,0.0,1.1,69,0.00,,---,0.00,VWS V14.01,2013-05-07 13:16:00,
2013-05-07 08:21:00,59.0,48.5,30.09,West,270,1.1,1.3,68,0.00,,---,0.00,VWS V14.01,2013-05-07 13:21:00,
2013-05-07 08:26:00,59.2,48.2,30.06,SSE,158,0.0,2.2,67,0.00,,---,0.00,VWS V14.01,2013-05-07 13:26:00,
2013-05-07 08:31:00,59.2,48.2,30.06,South,180,0.0,0.0,67,0.00,,---,0.00,VWS V14.01,2013-05-07 13:31:00,
2013-05-07 08:36:00,59.9,48.9,30.06,West,270,0.0,0.0,67,0.00,,---,0.00,VWS V14.01,2013-05-07 13:36:00,
2013-05-07 08:41:00,60.6,49.2,30.09,SSE,158,0.0,0.0,66,0.00,,---,0.00,VWS V14.01,2013-05-07 13:41:00,
2013-05-07 08:46:00,61.3,49.5,30.09,SE,135,1.6,2.5,65,0.00,,---,0.00,VWS V14.01,2013-05-07 13:46:00,
2013-05-07 08:51:00,61.7,49.4,30.09,SSW,202,0.9,2.5,64,0.00,,---,0.00,VWS V14.01,2013-05-07 13:51:00,
2013-05-07 08:56:00,62.6,49.8,30.09,SSE,158,0.0,0.0,63,0.00,,---,0.00,VWS V14.01,2013-05-07 13:56:00,
2013-05-07 09:01:00,63.0,50.2,30.09,West,270,1.3,1.6,63,0.00,,---,0.00,VWS V14.01,2013-05-07 14:01:00,
2013-05-07 09:06:00,63.1,49.5,30.09,SE,135,0.0,0.0,61,0.00,,---,0.00,VWS V14.01,2013-05-07 14:06:00,
2013-05-07 09:11:00,63.3,49.7,30.09,South,180,2.5,2.5,61,0.00,,---,0.00,VWS V14.01,2013-05-07 14:11:00,
2013-05-07 09:16:00,64.4,49.8,30.09,SSE,158,2.0,2.0,59,0.00,,---,0.00,VWS V14.01,2013-05-07 14:16:00,
2013-05-07 09:21:00,65.1,50.0,30.09,NW,315,0.0,0.0,58,0.00,,---,0.00,VWS V14.01,2013-05-07 14:21:00,
2013-05-07 09:26:00,65.8,50.2,30.06,SSE,158,0.0,1.3,57,0.00,,---,0.00,VWS V14.01,2013-05-07 14:26:00,
2013-05-07 09:31:00,66.2,49.6,30.06,East,90,0.9,2.5,55,0.00,,---,0.00,VWS V14.01,2013-05-07 14:31:00,
2013-05-07 09:36:00,66.7,49.1,30.06,SE,135,0.0,1.6,53,0.00,,---,0.00,VWS V14.01,2013-05-07 14:36:00,
2013-05-07 09:41:00,67.5,49.8,30.09,SE,135,0.0,1.3,53,0.00,,---,0.00,VWS V14.01,2013-05-07 14:41:00,
2013-05-07 09:46:00,67.8,48.0,30.09,SE,135,0.0,2.7,49,0.00,,---,0.00,VWS V14.01,2013-05-07 14:46:00,
2013-05-07 09:51:00,68.5,49.2,30.09,SSE,158,0.9,1.3,50,0.00,,---,0.00,VWS V14.01,2013-05-07 14:51:00,
2013-05-07 09:56:00,68.9,49.0,30.09,SSE,158,2.5,3.4,49,0.00,,---,0.00,VWS V14.01,2013-05-07 14:56:00,
2013-05-07 10:01:00,68.9,47.9,30.09,SE,135,3.4,3.4,47,0.00,,---,0.00,VWS V14.01,2013-05-07 15:01:00,
2013-05-07 10:06:00,69.3,47.6,30.09,ESE,112,1.6,2.9,46,0.00,,---,0.00,VWS V14.01,2013-05-07 15:06:00,
2013-05-07 10:11:00,69.8,48.1,30.09,NE,45,0.0,2.5,46,0.00,,---,0.00,VWS V14.01,2013-05-07 15:11:00,
2013-05-07 10:16:00,70.3,48.0,30.09,East,90,1.3,2.9,45,0.00,,---,0.00,VWS V14.01,2013-05-07 15:16:00,
2013-05-07 10:22:00,70.9,47.9,30.09,ESE,112,0.0,2.7,44,0.00,,---,0.00,VWS V14.01,2013-05-07 15:22:00,
2013-05-07 10:28:00,71.4,48.4,30.09,South,180,3.1,3.4,44,0.00,,---,0.00,VWS V14.01,2013-05-07 15:28:00,
2013-05-07 10:33:00,71.4,47.2,30.09,East,90,2.5,2.5,42,0.00,,---,0.00,VWS V14.01,2013-05-07 15:33:00,
2013-05-07 10:39:00,71.6,46.7,30.09,SE,135,2.0,2.0,41,0.00,,---,0.00,VWS V14.01,2013-05-07 15:39:00,
2013-05-07 10:44:00,72.1,47.2,30.06,SSE,158,2.7,2.7,41,0.00,,---,0.00,VWS V14.01,2013-05-07 15:44:00,
2013-05-07 10:49:00,72.9,47.8,30.06,East,90,1.3,1.6,41,0.00,,---,0.00,VWS V14.01,2013-05-07 15:49:00,
2013-05-07 10:54:00,73.8,48.0,30.06,SSE,158,3.4,3.8,40,0.00,,---,0.00,VWS V14.01,2013-05-07 15:54:00,
2013-05-07 10:59:00,74.3,47.1,30.09,ESE,112,1.6,2.5,38,0.00,,---,0.00,VWS V14.01,2013-05-07 15:59:00,
2013-05-07 11:04:00,75.2,46.4,30.09,SSE,158,3.8,3.8,36,0.00,,---,0.00,VWS V14.01,2013-05-07 16:04:00,
2013-05-07 11:09:00,75.7,46.2,30.09,SE,135,1.3,3.6,35,0.00,,---,0.00,VWS V14.01,2013-05-07 16:09:00,
2013-05-07 11:14:00,76.5,46.0,30.06,SE,135,2.9,2.9,34,0.00,,---,0.00,VWS V14.01,2013-05-07 16:14:00,
2013-05-07 11:19:00,76.3,45.1,30.06,ENE,68,1.1,3.6,33,0.00,,---,0.00,VWS V14.01,2013-05-07 16:19:00,
2013-05-07 11:24:00,76.6,45.4,30.06,SSW,202,1.3,3.1,33,0.00,,---,0.00,VWS V14.01,2013-05-07 16:24:00,
2013-05-07 11:29:00,75.6,43.7,30.06,East,90,2.0,3.8,32,0.00,,---,0.00,VWS V14.01,2013-05-07 16:29:00,
2013-05-07 11:35:00,74.5,42.7,30.06,SSE,158,1.3,2.9,32,0.00,,---,0.00,VWS V14.01,2013-05-07 16:35:00,
2013-05-07 11:41:00,74.8,43.0,30.06,SE,135,2.7,2.7,32,0.00,,---,0.00,VWS V14.01,2013-05-07 16:41:00,
2013-05-07 11:46:00,74.3,42.6,30.06,WNW,292,0.0,2.0,32,0.00,,---,0.00,VWS V14.01,2013-05-07 16:46:00,
2013-05-07 11:52:00,74.1,42.4,30.06,SSW,202,2.7,2.7,32,0.00,,---,0.00,VWS V14.01,2013-05-07 16:52:00,
2013-05-07 11:57:00,74.8,43.0,30.06,SE,135,3.1,4.0,32,0.00,,---,0.00,VWS V14.01,2013-05-07 16:57:00,
2013-05-07 12:03:00,75.9,44.0,30.06,West,270,2.2,2.2,32,0.00,,---,0.00,VWS V14.01,2013-05-07 17:03:00,
2013-05-07 12:08:00,76.3,43.5,30.06,SSW,202,2.2,2.9,31,0.00,,---,0.00,VWS V14.01,2013-05-07 17:08:00,
2013-05-07 12:14:00,77.9,44.0,30.06,SE,135,2.5,3.8,30,0.00,,---,0.00,VWS V14.01,2013-05-07 17:14:00,
2013-05-07 12:20:00,78.3,44.3,30.06,ESE,112,3.6,6.5,30,0.00,,---,0.00,VWS V14.01,2013-05-07 17:20:00,
2013-05-07 12:25:00,78.8,44.8,30.06,ENE,68,2.9,2.9,30,0.00,,---,0.00,VWS V14.01,2013-05-07 17:25:00,
2013-05-07 12:31:00,79.5,45.4,30.06,SSE,158,2.2,3.6,30,0.00,,---,0.00,VWS V14.01,2013-05-07 17:31:00,
2013-05-07 12:37:00,80.8,44.7,30.06,East,90,2.5,3.1,28,0.00,,---,0.00,VWS V14.01,2013-05-07 17:37:00,
2013-05-07 12:42:00,81.0,44.8,30.06,ESE,112,2.5,2.9,28,0.00,,---,0.00,VWS V14.01,2013-05-07 17:42:00,
2013-05-07 12:47:00,81.3,44.2,30.06,SE,135,3.8,3.8,27,0.00,,---,0.00,VWS V14.01,2013-05-07 17:47:00,
2013-05-07 12:53:00,81.1,43.0,30.06,South,180,2.0,6.0,26,0.00,,---,0.00,VWS V14.01,2013-05-07 17:53:00,
2013-05-07 12:59:00,81.9,43.7,30.06,South,180,2.7,2.7,26,0.00,,---,0.00,VWS V14.01,2013-05-07 17:59:00,
2013-05-07 13:05:00,82.4,43.1,30.06,SE,135,2.7,2.7,25,0.00,,---,0.00,VWS V14.01,2013-05-07 18:05:00,
2013-05-07 13:11:00,82.0,42.8,30.06,SSE,158,7.6,7.6,25,0.00,,---,0.00,VWS V14.01,2013-05-07 18:11:00,
2013-05-07 13:16:00,81.5,41.3,30.06,SE,135,7.6,7.6,24,0.00,,---,0.00,VWS V14.01,2013-05-07 18:16:00,
2013-05-07 13:21:00,81.5,41.3,30.06,SSE,158,8.1,8.1,24,0.00,,---,0.00,VWS V14.01,2013-05-07 18:21:00,
2013-05-07 13:27:00,82.2,41.9,30.03,East,90,1.3,2.5,24,0.00,,---,0.00,VWS V14.01,2013-05-07 18:27:00,
2013-05-07 13:33:00,80.6,40.5,30.03,SSE,158,1.3,3.4,24,0.00,,---,0.00,VWS V14.01,2013-05-07 18:33:00,
2013-05-07 13:38:00,82.0,41.7,30.03,SSE,158,3.8,4.0,24,0.00,,---,0.00,VWS V14.01,2013-05-07 18:38:00,
2013-05-07 13:44:00,82.0,40.6,30.03,SSE,158,5.8,5.8,23,0.00,,---,0.00,VWS V14.01,2013-05-07 18:44:00,
2013-05-07 13:49:00,82.2,40.8,30.03,SSE,158,6.5,6.5,23,0.00,,---,0.00,VWS V14.01,2013-05-07 18:49:00,
2013-05-07 13:55:00,82.6,41.1,30.03,SE,135,2.9,3.4,23,0.00,,---,0.00,VWS V14.01,2013-05-07 18:55:00,
2013-05-07 14:01:00,81.1,39.9,30.03,East,90,6.3,6.3,23,0.00,,---,0.00,VWS V14.01,2013-05-07 19:01:00,
2013-05-07 14:06:00,79.9,38.8,30.03,SE,135,3.1,4.0,23,0.00,,---,0.00,VWS V14.01,2013-05-07 19:06:00,
2013-05-07 14:12:00,78.4,38.7,30.03,ESE,112,2.9,3.1,24,0.00,,---,0.00,VWS V14.01,2013-05-07 19:12:00,
2013-05-07 14:17:00,78.3,38.5,30.03,SE,135,3.8,6.3,24,0.00,,---,0.00,VWS V14.01,2013-05-07 19:17:00,
2013-05-07 14:23:00,79.2,39.3,30.03,SSE,158,3.4,3.6,24,0.00,,---,0.00,VWS V14.01,2013-05-07 19:23:00,
2013-05-07 14:29:00,80.1,39.0,30.03,SE,135,2.9,5.4,23,0.00,,---,0.00,VWS V14.01,2013-05-07 19:29:00,
2013-05-07 14:35:00,81.0,39.7,30.03,East,90,0.9,5.6,23,0.00,,---,0.00,VWS V14.01,2013-05-07 19:35:00,
2013-05-07 14:41:00,80.6,39.4,30.03,SSE,158,4.0,4.0,23,0.00,,---,0.00,VWS V14.01,2013-05-07 19:41:00,
2013-05-07 14:46:00,80.8,39.6,30.03,SE,135,1.3,2.9,23,0.00,,---,0.00,VWS V14.01,2013-05-07 19:46:00,
2013-05-07 14:51:00,81.3,38.9,30.03,ENE,68,3.6,5.8,22,0.00,,---,0.00,VWS V14.01,2013-05-07 19:51:00,
2013-05-07 14:57:00,81.1,38.7,30.03,West,270,2.7,2.7,22,0.00,,---,0.00,VWS V14.01,2013-05-07 19:57:00,
2013-05-07 15:02:00,80.8,38.4,30.03,South,180,4.7,4.7,22,0.00,,---,0.00,VWS V14.01,2013-05-07 20:02:00,
2013-05-07 15:08:00,81.1,38.7,30.03,South,180,2.9,4.0,22,0.00,,---,0.00,VWS V14.01,2013-05-07 20:08:00,
2013-05-07 15:13:00,80.6,38.3,30.03,SE,135,3.6,6.0,22,0.00,,---,0.00,VWS V14.01,2013-05-07 20:13:00,
2013-05-07 15:19:00,80.8,38.4,30.03,South,180,2.0,3.4,22,0.00,,---,0.00,VWS V14.01,2013-05-07 20:19:00,
2013-05-07 15:24:00,80.8,38.4,30.03,South,180,2.5,4.3,22,0.00,,---,0.00,VWS V14.01,2013-05-07 20:24:00,
2013-05-07 15:30:00,80.8,38.4,30.03,SSW,202,0.9,2.9,22,0.00,,---,0.00,VWS V14.01,2013-05-07 20:30:00,
2013-05-07 15:36:00,80.2,39.1,30.03,ESE,112,1.6,1.6,23,0.00,,---,0.00,VWS V14.01,2013-05-07 20:36:00,
2013-05-07 15:41:00,80.1,39.0,30.03,WSW,248,2.9,5.4,23,0.00,,---,0.00,VWS V14.01,2013-05-07 20:41:00,
2013-05-07 15:47:00,79.9,38.8,30.03,SSE,158,5.6,5.6,23,0.00,,---,0.00,VWS V14.01,2013-05-07 20:47:00,
2013-05-07 15:52:00,78.8,37.9,30.03,SSE,158,3.6,6.3,23,0.00,,---,0.00,VWS V14.01,2013-05-07 20:52:00,
2013-05-07 15:58:00,77.5,36.8,30.03,ENE,68,2.2,2.5,23,0.00,,---,0.00,VWS V14.01,2013-05-07 20:58:00,
2013-05-07 16:04:00,77.9,38.2,30.03,North,0,2.0,3.1,24,0.00,,---,0.00,VWS V14.01,2013-05-07 21:04:00,
2013-05-07 16:09:00,78.1,38.4,30.03,SSE,158,1.3,3.8,24,0.00,,---,0.00,VWS V14.01,2013-05-07 21:09:00,
2013-05-07 16:15:00,78.8,37.9,30.03,South,180,1.6,3.6,23,0.00,,---,0.00,VWS V14.01,2013-05-07 21:15:00,
2013-05-07 16:21:00,79.5,39.6,30.03,ENE,68,3.4,3.4,24,0.00,,---,0.00,VWS V14.01,2013-05-07 21:21:00,
2013-05-07 16:26:00,79.3,38.4,30.03,NW,315,1.1,6.0,23,0.00,,---,0.00,VWS V14.01,2013-05-07 21:26:00,
2013-05-07 16:32:00,79.3,39.5,30.03,SW,225,2.2,4.9,24,0.00,,---,0.00,VWS V14.01,2013-05-07 21:32:00,
2013-05-07 16:37:00,79.3,39.5,30.03,WSW,248,2.7,2.7,24,0.00,,---,0.00,VWS V14.01,2013-05-07 21:37:00,
2013-05-07 16:42:00,78.8,39.0,30.03,South,180,1.1,2.5,24,0.00,,---,0.00,VWS V14.01,2013-05-07 21:42:00,
2013-05-07 16:47:00,78.1,38.4,30.03,SSE,158,0.9,3.4,24,0.00,,---,0.00,VWS V14.01,2013-05-07 21:47:00,
2013-05-07 16:53:00,78.1,38.4,30.03,North,0,2.5,3.1,24,0.00,,---,0.00,VWS V14.01,2013-05-07 21:53:00,
2013-05-07 16:58:00,78.1,38.4,30.00,SE,135,2.9,4.0,24,0.00,,---,0.00,VWS V14.01,2013-05-07 21:58:00,
2013-05-07 17:03:00,78.3,38.5,30.00,ESE,112,1.3,2.7,24,0.00,,---,0.00,VWS V14.01,2013-05-07 22:03:00,
2013-05-07 17:08:00,78.4,38.7,30.00,SSE,158,2.5,3.6,24,0.00,,---,0.00,VWS V14.01,2013-05-07 22:08:00,
2013-05-07 17:13:00,77.9,39.3,30.00,West,270,0.0,1.1,25,0.00,,---,0.00,VWS V14.01,2013-05-07 22:13:00,
2013-05-07 17:19:00,77.2,38.7,30.00,South,180,2.7,3.1,25,0.00,,---,0.00,VWS V14.01,2013-05-07 22:19:00,
2013-05-07 17:25:00,76.6,39.2,30.00,SE,135,2.2,2.2,26,0.00,,---,0.00,VWS V14.01,2013-05-07 22:25:00,
2013-05-07 17:31:00,76.1,38.8,30.00,SSE,158,0.0,0.0,26,0.00,,---,0.00,VWS V14.01,2013-05-07 22:31:00,
2013-05-07 17:36:00,75.7,38.5,30.00,South,180,2.0,2.0,26,0.00,,---,0.00,VWS V14.01,2013-05-07 22:36:00,
2013-05-07 17:42:00,75.2,38.0,30.00,SSE,158,1.3,2.0,26,0.00,,---,0.00,VWS V14.01,2013-05-07 22:42:00,
2013-05-07 17:47:00,75.2,38.0,30.00,SW,225,3.8,4.9,26,0.00,,---,0.00,VWS V14.01,2013-05-07 22:47:00,
2013-05-07 17:53:00,75.0,37.8,30.00,SSE,158,1.3,1.6,26,0.00,,---,0.00,VWS V14.01,2013-05-07 22:53:00,
2013-05-07 17:59:00,75.4,38.2,30.00,South,180,0.0,2.0,26,0.00,,---,0.00,VWS V14.01,2013-05-07 22:59:00,
2013-05-07 18:04:00,75.4,38.2,30.00,SW,225,2.0,2.9,26,0.00,,---,0.00,VWS V14.01,2013-05-07 23:04:00,
2013-05-07 18:09:00,75.6,38.3,30.00,SE,135,0.9,2.7,26,0.00,,---,0.00,VWS V14.01,2013-05-07 23:09:00,
2013-05-07 18:14:00,75.7,38.5,30.00,ESE,112,1.3,1.3,26,0.00,,---,0.00,VWS V14.01,2013-05-07 23:14:00,
2013-05-07 18:19:00,75.7,38.5,30.00,SW,225,0.0,2.5,26,0.00,,---,0.00,VWS V14.01,2013-05-07 23:19:00,
2013-05-07 18:25:00,75.7,38.5,30.00,NNE,22,1.1,1.6,26,0.00,,---,0.00,VWS V14.01,2013-05-07 23:25:00,
2013-05-07 18:31:00,75.9,39.6,30.00,SSE,158,1.6,1.6,27,0.00,,---,0.00,VWS V14.01,2013-05-07 23:31:00,
2013-05-07 18:36:00,75.7,38.5,30.00,SSE,158,3.8,3.8,26,0.00,,---,0.00,VWS V14.01,2013-05-07 23:36:00,
2013-05-07 18:41:00,75.6,39.3,30.00,WNW,292,1.6,1.6,27,0.00,,---,0.00,VWS V14.01,2013-05-07 23:41:00,
2013-05-07 18:47:00,75.4,39.1,30.00,SE,135,2.2,2.2,27,0.00,,---,0.00,VWS V14.01,2013-05-07 23:47:00,
2013-05-07 18:53:00,75.2,39.0,30.00,WNW,292,0.9,1.3,27,0.00,,---,0.00,VWS V14.01,2013-05-07 23:53:00,
2013-05-07 18:59:00,74.8,38.7,30.00,West,270,0.0,2.2,27,0.00,,---,0.00,VWS V14.01,2013-05-07 23:59:00,
2013-05-07 19:04:00,74.8,38.7,30.00,NW,315,1.3,3.1,27,0.00,,---,0.00,VWS V14.01,2013-05-08 00:04:00,
2013-05-07 19:10:00,74.8,39.6,30.00,South,180,1.3,2.5,28,0.00,,---,0.00,VWS V14.01,2013-05-08 00:10:00,
2013-05-07 19:15:00,74.8,39.6,30.03,SW,225,2.9,3.8,28,0.00,,---,0.00,VWS V14.01,2013-05-08 00:15:00,
2013-05-07 19:21:00,74.7,39.4,30.03,South,180,3.4,3.4,28,0.00,,---,0.00,VWS V14.01,2013-05-08 00:21:00,
2013-05-07 19:27:00,74.5,39.3,30.00,SSE,158,0.0,0.0,28,0.00,,---,0.00,VWS V14.01,2013-05-08 00:27:00,
2013-05-07 19:32:00,74.3,39.1,30.00,WSW,248,1.3,2.2,28,0.00,,---,0.00,VWS V14.01,2013-05-08 00:32:00,
2013-05-07 19:38:00,73.8,39.5,30.00,SW,225,0.0,2.2,29,0.00,,---,0.00,VWS V14.01,2013-05-08 00:38:00,
2013-05-07 19:43:00,73.6,40.3,30.00,SSW,202,1.1,2.5,30,0.00,,---,0.00,VWS V14.01,2013-05-08 00:43:00,
2013-05-07 19:49:00,73.2,40.0,30.00,SW,225,1.3,2.5,30,0.00,,---,0.00,VWS V14.01,2013-05-08 00:49:00,
2013-05-07 19:54:00,72.9,40.5,30.00,South,180,1.6,1.6,31,0.00,,---,0.00,VWS V14.01,2013-05-08 00:54:00,
2013-05-07 20:00:00,72.7,40.3,30.00,South,180,2.5,3.8,31,0.00,,---,0.00,VWS V14.01,2013-05-08 01:00:00,
2013-05-07 20:05:00,72.7,40.3,30.00,SSE,158,1.3,2.2,31,0.00,,---,0.00,VWS V14.01,2013-05-08 01:05:00,
2013-05-07 20:10:00,72.3,40.0,30.00,SSE,158,1.6,1.6,31,0.00,,---,0.00,VWS V14.01,2013-05-08 01:10:00,
2013-05-07 20:16:00,72.1,40.7,30.00,South,180,3.1,3.1,32,0.00,,---,0.00,VWS V14.01,2013-05-08 01:16:00,
2013-05-07 20:21:00,72.0,40.5,30.00,SSE,158,1.3,2.7,32,0.00,,---,0.00,VWS V14.01,2013-05-08 01:21:00,
2013-05-07 20:27:00,71.6,40.2,30.00,South,180,1.3,2.0,32,0.00,,---,0.00,VWS V14.01,2013-05-08 01:27:00,
2013-05-07 20:32:00,71.2,39.9,30.00,South,180,0.9,1.3,32,0.00,,---,0.00,VWS V14.01,2013-05-08 01:32:00,
2013-05-07 20:37:00,71.1,39.7,30.00,SSE,158,1.1,1.6,32,0.00,,---,0.00,VWS V14.01,2013-05-08 01:37:00,
2013-05-07 20:43:00,70.9,40.4,30.00,SSE,158,1.1,1.3,33,0.00,,---,0.00,VWS V14.01,2013-05-08 01:43:00,
2013-05-07 20:48:00,70.5,40.1,30.00,SSE,158,0.0,0.0,33,0.00,,---,0.00,VWS V14.01,2013-05-08 01:48:00,
2013-05-07 20:53:00,70.2,39.7,30.00,SSE,158,0.0,0.0,33,0.00,,---,0.00,VWS V14.01,2013-05-08 01:53:00,
2013-05-07 20:59:00,70.2,39.7,30.00,SSE,158,0.0,0.0,33,0.00,,---,0.00,VWS V14.01,2013-05-08 01:59:00,
2013-05-07 21:05:00,69.4,39.9,30.00,SSE,158,0.0,0.0,34,0.00,,---,0.00,VWS V14.01,2013-05-08 02:05:00,
2013-05-07 21:10:00,69.1,39.6,30.00,SSE,158,0.0,0.0,34,0.00,,---,0.00,VWS V14.01,2013-05-08 02:10:00,
2013-05-07 21:16:00,68.7,39.2,30.00,SSE,158,0.0,0.0,34,0.00,,---,0.00,VWS V14.01,2013-05-08 02:16:00,
2013-05-07 21:21:00,68.4,39.7,30.00,South,180,0.0,0.0,35,0.00,,---,0.00,VWS V14.01,2013-05-08 02:21:00,
2013-05-07 21:27:00,68.0,39.3,30.03,SSE,158,0.0,0.0,35,0.00,,---,0.00,VWS V14.01,2013-05-08 02:27:00,
2013-05-07 21:33:00,68.0,39.3,30.03,SSE,158,0.0,0.0,35,0.00,,---,0.00,VWS V14.01,2013-05-08 02:33:00,
2013-05-07 21:38:00,67.8,39.9,30.03,SSE,158,0.0,0.0,36,0.00,,---,0.00,VWS V14.01,2013-05-08 02:38:00,
2013-05-07 21:43:00,67.6,40.5,30.00,SSE,158,0.0,0.0,37,0.00,,---,0.00,VWS V14.01,2013-05-08 02:43:00,
2013-05-07 21:48:00,67.3,40.1,30.00,SSE,158,0.0,0.0,37,0.00,,---,0.00,VWS V14.01,2013-05-08 02:48:00,
2013-05-07 21:54:00,67.1,40.7,30.00,SSE,158,0.0,0.0,38,0.00,,---,0.00,VWS V14.01,2013-05-08 02:54:00,
2013-05-07 21:59:00,67.1,40.7,30.03,SSE,158,0.0,0.0,38,0.00,,---,0.00,VWS V14.01,2013-05-08 02:59:00,
2013-05-07 22:04:00,66.9,40.5,30.03,SSE,158,0.0,0.0,38,0.00,,---,0.00,VWS V14.01,2013-05-08 03:04:00,
2013-05-07 22:09:00,66.7,41.0,30.03,SSE,158,0.0,0.0,39,0.00,,---,0.00,VWS V14.01,2013-05-08 03:09:00,
2013-05-07 22:15:00,66.7,41.0,30.03,SSE,158,0.0,0.0,39,0.00,,---,0.00,VWS V14.01,2013-05-08 03:15:00,
2013-05-07 22:20:00,66.6,40.9,30.03,SE,135,0.0,0.0,39,0.00,,---,0.00,VWS V14.01,2013-05-08 03:20:00,
2013-05-07 22:26:00,66.4,41.3,30.03,SSE,158,0.0,0.0,40,0.00,,---,0.00,VWS V14.01,2013-05-08 03:26:00,
2013-05-07 22:31:00,66.4,41.3,30.03,SSE,158,0.0,0.0,40,0.00,,---,0.00,VWS V14.01,2013-05-08 03:31:00,
2013-05-07 22:38:00,66.2,41.2,30.03,SSE,158,1.3,2.0,40,0.00,,---,0.00,VWS V14.01,2013-05-08 03:38:00,
2013-05-07 22:44:00,66.2,41.8,30.03,SSE,158,0.0,0.0,41,0.00,,---,0.00,VWS V14.01,2013-05-08 03:44:00,
2013-05-07 22:50:00,66.2,41.8,30.03,SSE,158,0.9,2.5,41,0.00,,---,0.00,VWS V14.01,2013-05-08 03:50:00,
2013-05-07 22:55:00,66.2,42.5,30.03,SSE,158,1.3,1.3,42,0.00,,---,0.00,VWS V14.01,2013-05-08 03:55:00,
2013-05-07 23:01:00,66.2,42.5,30.03,SSE,158,1.3,1.3,42,0.00,,---,0.00,VWS V14.01,2013-05-08 04:01:00,
2013-05-07 23:02:00,66.2,42.5,30.03,SE,135,1.3,1.6,42,0.00,,---,0.00,VWS V14.01,2013-05-08 04:02:00,
2013-05-07 23:03:00,66.2,42.5,30.03,SSE,158,1.3,1.6,42,0.00,,---,0.00,VWS V14.01,2013-05-08 04:03:00,
2013-05-07 23:05:00,66.2,42.5,30.03,South,180,1.1,1.3,42,0.00,,---,0.00,VWS V14.01,2013-05-08 04:05:00,
2013-05-07 23:06:00,66.0,42.9,30.03,SSE,158,1.1,1.3,43,0.00,,---,0.00,VWS V14.01,2013-05-08 04:06:00,
2013-05-07 23:08:00,66.0,42.9,30.03,South,180,0.0,0.0,43,0.00,,---,0.00,VWS V14.01,2013-05-08 04:08:00,
2013-05-07 23:13:00,66.0,42.9,30.00,South,180,0.0,0.0,43,0.00,,---,0.00,VWS V14.01,2013-05-08 04:13:00,
2013-05-07 23:18:00,65.8,42.7,30.00,SSE,158,0.0,0.0,43,0.00,,---,0.00,VWS V14.01,2013-05-08 04:18:00,
2013-05-07 23:23:00,65.8,42.7,30.00,SSE,158,1.3,1.3,43,0.00,,---,0.00,VWS V14.01,2013-05-08 04:23:00,
2013-05-07 23:28:00,65.7,42.6,30.03,SSE,158,0.0,0.0,43,0.00,,---,0.00,VWS V14.01,2013-05-08 04:28:00,
2013-05-07 23:33:00,65.7,42.6,30.03,SSE,158,0.0,0.0,43,0.00,,---,0.00,VWS V14.01,2013-05-08 04:33:00,
2013-05-07 23:39:00,65.5,43.0,30.03,SSE,158,0.0,1.6,44,0.00,,---,0.00,VWS V14.01,2013-05-08 04:39:00,
2013-05-07 23:44:00,65.3,42.8,30.03,SE,135,0.9,1.1,44,0.00,,---,0.00,VWS V14.01,2013-05-08 04:44:00,
2013-05-07 23:49:00,65.1,42.7,30.03,SE,135,0.0,0.0,44,0.00,,---,0.00,VWS V14.01,2013-05-08 04:49:00,
2013-05-07 23:54:00,64.8,42.4,30.03,SE,135,0.0,0.0,44,0.00,,---,0.00,VWS V14.01,2013-05-08 04:54:00,
2013-05-07 23:59:00,64.4,42.0,30.00,SE,135,0.0,0.0,44,0.00,,---,0.00,VWS V14.01,2013-05-08 04:59:00,